Current Version              Previous Version:    01  02  03  04  05  06  07  08  09  10  11  12  13  14  15  16  17  18  19  20  21  22  23  24  25  26  27  28  29  30  
   31  32  33  34  35  36  37  38  39  40  41  42  43  44  45  46  47  48  49  50  51  52  53  54  55  56  57  58  59  60  

[Printable]
796
ASUS44 KFWD 312103
RWRTX
NORTH TEXAS HOURLY WEATHER ROUNDUP
NATIONAL WEATHER SERVICE FORT WORTH TX
400 PM CDT FRI OCT 31 2014

NOTE: "FAIR" INDICATES FEW OR NO CLOUDS BELOW 12,000 FEET WITH NO
SIGNIFICANT WEATHER AND/OR OBSTRUCTIONS TO VISIBILITY.

TXZ118-119-312200-
DALLAS/FORT WORTH METROPLEX

CITY           SKY/WX    TMP DP  RH WIND       PRES   REMARKS
DFW AIRPORT    SUNNY     65  39  38 N13G24    30.29F
DALLAS LOVE    SUNNY     67  40  37 N15G24    30.29F
FTW MEACHAM    SUNNY     67  39  35 N15G25    30.29F
DAL-EXECUTIVE  SUNNY     68  39  34 N15G21    30.28S
FTW-ALLIANCE   SUNNY     66  38  35 N16       30.30F
FTW-NAS-JRB    SUNNY     70  37  29 N17G23    30.33F
FTW-SPINKS     SUNNY     66  39  37 N15       30.30F
ARLINGTON      SUNNY     67  38  34 N16G22    30.29S
GRAND PRAIRIE  SUNNY     64  41  42 MISG      30.30
LANCASTER      SUNNY     66  35  32 N15G23    30.29S
$$

TXZ091>094-102>105-117-120-121-131>134-312200-
NORTH CENTRAL TEXAS

CITY           SKY/WX    TMP DP  RH WIND       PRES   REMARKS
SHRMAN/DENISON SUNNY     64  42  44 N16G22    30.32S
GAINESVILLE    SUNNY     62  37  40 N13G21    30.34S
BOWIE          SUNNY     63  38  40 N12       30.32F
BRIDGEPORT     SUNNY     65  40  40 N9        30.33S
DECATUR        SUNNY     63  36  36 N12G21    30.31F
DENTON         SUNNY     65  38  36 N17G23    30.30F
MCKINNEY       SUNNY     65  39  38 N16       30.28F
GREENVILLE     SUNNY     64  37  36 N14G24    30.28S
ROCKWALL       SUNNY     64  40  40 N14G25    30.27S
TERRELL        SUNNY     67  39  35 N15G22    30.27F
WAXAHACHIE     SUNNY     66  42  41 N14G24    30.29S
CLEBURNE       SUNNY     66  39  37 N15G24    30.30F
GRANBURY       SUNNY     67  40  36 N7        30.30F
$$

TXZ083>090-098>101-113>116-127>130-139>142-154-155-312200-
WESTERN NORTH TEXAS

CITY           SKY/WX    TMP DP  RH WIND       PRES   REMARKS
WICHITA FALLS  SUNNY     63  35  35 N15       30.34F
WF-KICKAPOO    SUNNY     63  33  32 N13       30.35S
VERNON         SUNNY     64  28  25 NE7       30.36F
ABILENE        SUNNY     68  32  26 N9G23     30.32F
ABILENE-DYESS  SUNNY     66  33  28 N13       30.32F
BRECKENRIDGE   SUNNY     67  34  29 N10G18    30.32S
GRAHAM         SUNNY     65  40  39 N9G16     30.31F
MINERAL WELLS  SUNNY     67  37  33 N10       30.29F
STEPHENVILLE   SUNNY     66  37  34 N10       30.32F
COMANCHE       SUNNY     68  39  34 N15       30.30F
COLEMAN        SUNNY     69  36  29 N13       30.31F
BRADY          SUNNY     72  34  25 N14       30.28F
$$

TXZ143>147-156>162-174-175-312200-
CENTRAL TEXAS

CITY           SKY/WX    TMP DP  RH WIND       PRES   REMARKS
WACO           SUNNY     70  40  33 N16       30.26F
WACO-TSTC      SUNNY     70  39  32 NW14G21     N/A
WACO-MCGREGOR  SUNNY     70  41  35 N14       30.27F
HILLSBORO      SUNNY     68  39  34 NW14G22   30.27F
CORSICANA      SUNNY     69  41  36 N16G22    30.27S
MEXIA          SUNNY     67  42  40 N14       30.24F
HEARNE         SUNNY     71  42  35 NW17G26   30.23S
CAMERON        SUNNY     72  41  32 N17G23    30.23S
TEMPLE         SUNNY     72  37  28 N18       30.24F
KILLEEN        SUNNY     70  37  29 N16G23    30.24F
KILLEEN-SKYLRK SUNNY     72  37  28 N14G20    30.22F
GATESVILLE     SUNNY     70  39  32 N14       30.28F
HAMILTON       SUNNY     68  37  31 NE15G22   30.29S
LAMPASAS       SUNNY     71  39  31 N14       30.26S
$$

TXZ095>097-106>112-122>126-135>138-148>153-164>167-312200-
EAST TEXAS

CITY           SKY/WX    TMP DP  RH WIND       PRES   REMARKS
PARIS          SUNNY     61  37  41 N12G22    30.30R
SULPHUR SPRNGS MOSUNNY   64  44  47 N20G26    30.29S
MOUNT PLEASANT MOSUNNY   65  41  42 N12G21    30.26R
MINEOLA        SUNNY     66  39  37 NW17      30.26R
TYLER          SUNNY     68  42  38 N14G22    30.23S
LONGVIEW       MOSUNNY   68  43  40 N13G20    30.20S
MARSHALL       MOSUNNY   70  45  40 N10       30.22S
ATHENS         SUNNY     64  41  42 N7G20     30.24S
PALESTINE      SUNNY     68  43  39 NW10G22   30.24S
JACKSONVILLE   SUNNY     67  41  39 N8        30.23S
HENDERSON      MOSUNNY   67  43  41 NW13G18   30.22S
NACOGDOCHES    SUNNY     72  43  35 N15       30.20R
LUFKIN         SUNNY     74  43  32 N9        30.18S
$$

SUPPLEMENTAL OBSERVATIONS (CENTRAL)

CITY           SKY/WX    TMP DP  RH WIND       PRES   REMARKS
$$

SUPPLEMENTAL OBSERVATIONS (WEST)

CITY           SKY/WX    TMP DP  RH WIND       PRES   REMARKS
$$

SUPPLEMENTAL OBSERVATIONS (EAST)

CITY           SKY/WX    TMP DP  RH WIND       PRES   REMARKS
$$

SUPPLEMENTAL OBSERVATIONS ARE A COLLECTION OF AUTOMATED INSTRUMENTS
THAT ARE MAINTAINED BY A VARIETY OF FEDERAL AND STATE AGENCIES.
CERTAIN ELEMENTS...SUCH AS HUMIDITY VALUES AND SUSTAINED WIND
SPEEDS...MAY BE APPROXIMATED.